sat.trackr.live / text

‹ back to catalog

STARLINK-5958

NORAD 56921 · 2023-083AX

PAYLOAD ACTIVE UNKNOWN

§ Identity

Operator
Country
US
Launch date
2023-06-12
Launch site
AFETR
Launch vehicle
Mass (kg)
RCS (m²)

Purposes: comms

External: N2YO · Heavens-Above · Gunter

§ Orbital elements

Epoch: 2026-09-20T21:09:47.231424Z

Period
94.27 min
Inclination
43.0039°
Eccentricity
0.0001556
Mean motion
15.27591736 rev/d
Perigee alt
481.9 km
Apogee alt
484.1 km
Semi-major
6,861.2 km
B*
7.1461e-5
RAAN
48.0423°
Arg perigee
266.7607°
Mean anomaly
93.3066°
Rev number
18,165

§ Raw data

STARLINK-59581 56921U 23083AX  26263.88179666  .00001705  00000+0  71461-4 0  99942 56921  43.0039  48.0423 0001556 266.7607  93.3066 15.27591736181650

JSON: /api/v1/satellites/56921 · /tle

For live sub-satellite position, see the globe view (requires WebGL).

§ Visibility from observer

Set your observer location to see the next 7 days of passes ≥ 10°. The values pass through the URL so the page stays shareable.

No JS? Fill the form by hand. The geolocation button needs JavaScript.